Weather History for Flippin, AR

Change the Weather History Date:

Tuesday, January 28, 2014

  Actual Average Record
Temperature  
Mean Temperature 19 °F -  
Max Temperature 26 °F 46 °F 77 °F (2002)
Min Temperature 12 °F 27 °F 8 °F (1997)
Degree Days  
Heating Degree Days 46    
Moisture  
Dew Point -6 °F    
Average Humidity 34    
Maximum Humidity 53    
Minimum Humidity 24    
Precipitation  
Precipitation 0.00 in - - ()
Sea Level Pressure  
Sea Level Pressure 30.41 in    
Wind  
Wind Speed 7 mph (North)    
Max Wind Speed 12 mph    
Max Gust Speed -    
Visibility 10 miles    
Events      
Averages and records for this station are not official NWS values.
T = Trace of Precipitation, MM = Missing Value Source: NWS Daily Summary

Daily Weather History Graph

Daily Weather History Graph

Search for Another Location

Airport:

Trip Planner

Search our weather history database for the weather conditions in past years. The results will help you decide how hot, cold, wet, or windy it might be!

Date:

Astronomy

Jan. 28, 2014 Rise Set
Actual Time 7:14 AM CST 5:32 PM CST
Civil Twilight 6:47 AM CST 5:59 PM CST
Nautical Twilight 6:16 AM CST 6:30 PM CST
Astronomical Twilight 5:45 AM CST 7:01 PM CST
Moon 4:55 AM CST (1/28) 3:24 PM CST (1/28)
Length of Visible Light 11h 12m
Length of Day
10h 18m
Waning Crescent, 7% of the Moon is Illuminated
Jan 28
Waning Crescent
Jan 30
New
Feb 6
First Quarter
Feb 14
Full
Feb 22
Last Quarter

Hourly Weather History & Observations

Time (CST) Temp. Windchill Dew Point Humidity Pressure Visibility Wind Dir Wind Speed Gust Speed Precip Events Conditions
12:15 AM 17.6 °F 5.7 °F -9.4 °F 30% 30.41 in 10.0 mi NNE 10.4 mph - N/A   Partly Cloudy
12:35 AM 17.6 °F 5.0 °F -9.4 °F 30% 30.41 in 10.0 mi NNE 11.5 mph - N/A   Partly Cloudy
12:55 AM 17.6 °F 5.7 °F -7.6 °F 32% 30.41 in 10.0 mi NNE 10.4 mph - N/A   Partly Cloudy
1:15 AM 17.6 °F 5.7 °F -7.6 °F 32% 30.41 in 10.0 mi NNE 10.4 mph - N/A   Clear
1:35 AM 17.6 °F 6.4 °F -7.6 °F 32% 30.41 in 10.0 mi NE 9.2 mph - N/A   Clear
1:55 AM 17.6 °F 8.2 °F -7.6 °F 32% 30.41 in 10.0 mi North 6.9 mph - N/A   Scattered Clouds
2:15 AM 17.6 °F 5.7 °F -7.6 °F 32% 30.41 in 10.0 mi NNE 10.4 mph - N/A   Partly Cloudy
2:35 AM 17.6 °F 7.3 °F -7.6 °F 32% 30.42 in 10.0 mi NNE 8.1 mph - N/A   Scattered Clouds
2:55 AM 17.6 °F 7.3 °F -7.6 °F 32% 30.42 in 10.0 mi NNE 8.1 mph - N/A   Overcast
3:15 AM 15.8 °F 3.4 °F -7.6 °F 35% 30.42 in 10.0 mi NNE 10.4 mph - N/A   Overcast
3:35 AM 15.8 °F 5.1 °F -7.6 °F 35% 30.41 in 10.0 mi NNE 8.1 mph - N/A   Mostly Cloudy
3:55 AM 15.8 °F 6.1 °F -7.6 °F 35% 30.41 in 10.0 mi NNE 6.9 mph - N/A   Partly Cloudy
4:15 AM 15.8 °F 5.1 °F -7.6 °F 35% 30.41 in 10.0 mi North 8.1 mph - N/A   Clear
4:35 AM 15.8 °F 4.2 °F -7.6 °F 35% 30.42 in 10.0 mi North 9.2 mph - N/A   Clear
4:55 AM 15.8 °F 4.2 °F -7.6 °F 35% 30.42 in 10.0 mi North 9.2 mph - N/A   Clear
5:15 AM 15.8 °F 8.6 °F -7.6 °F 35% 30.42 in 10.0 mi North 4.6 mph - N/A   Clear
5:35 AM 14.0 °F 3.9 °F -7.6 °F 38% 30.42 in 10.0 mi North 6.9 mph - N/A   Clear
5:55 AM 14.0 °F 5.1 °F -7.6 °F 38% 30.42 in 10.0 mi North 5.8 mph - N/A   Clear
6:15 AM 14.0 °F 5.1 °F -7.6 °F 38% 30.43 in 10.0 mi North 5.8 mph - N/A   Clear
6:35 AM 12.2 °F 4.3 °F -7.6 °F 41% 30.44 in 10.0 mi North 4.6 mph - N/A   Clear
6:55 AM 12.2 °F 1.7 °F -7.6 °F 41% 30.45 in 10.0 mi North 6.9 mph - N/A   Clear
7:15 AM 14.0 °F 5.1 °F -7.6 °F 38% 30.46 in 10.0 mi North 5.8 mph - N/A   Clear
7:35 AM 12.2 °F 1.7 °F -7.6 °F 41% 30.47 in 10.0 mi North 6.9 mph - N/A   Clear
7:55 AM 14.0 °F 5.1 °F -7.6 °F 38% 30.47 in 10.0 mi North 5.8 mph - N/A   Clear
8:15 AM 14.0 °F 2.0 °F -7.6 °F 38% 30.48 in 10.0 mi North 9.2 mph - N/A   Clear
8:35 AM 14.0 °F 2.9 °F -7.6 °F 38% 30.47 in 10.0 mi North 8.1 mph - N/A   Clear
8:55 AM 15.8 °F 3.4 °F -7.6 °F 35% 30.48 in 10.0 mi NNE 10.4 mph - N/A   Clear
9:15 AM 15.8 °F 6.1 °F -7.6 °F 35% 30.48 in 10.0 mi NE 6.9 mph - N/A   Clear
9:35 AM 15.8 °F 4.2 °F -7.6 °F 35% 30.49 in 10.0 mi NNE 9.2 mph - N/A   Clear
9:55 AM 17.6 °F 6.4 °F -7.6 °F 32% 30.49 in 10.0 mi North 9.2 mph - N/A   Clear
10:15 AM 17.6 °F 7.3 °F -7.6 °F 32% 30.49 in 10.0 mi North 8.1 mph - N/A   Mostly Cloudy
10:35 AM 17.6 °F 6.4 °F -5.8 °F 35% 30.49 in 10.0 mi NW 9.2 mph - N/A   Mostly Cloudy
10:55 AM 17.6 °F 9.3 °F -7.6 °F 32% 30.49 in 10.0 mi NNW 5.8 mph - N/A   Partly Cloudy
11:15 AM 17.6 °F 10.7 °F -5.8 °F 35% 30.48 in 10.0 mi NNE 4.6 mph - N/A   Clear
11:35 AM 19.4 °F 11.5 °F -5.8 °F 33% 30.47 in 10.0 mi NW 5.8 mph - N/A   Clear
11:55 AM 21.2 °F 10.1 °F -5.8 °F 30% 30.46 in 10.0 mi North 10.4 mph - N/A   Clear
12:15 PM 21.2 °F 10.1 °F -5.8 °F 30% 30.44 in 10.0 mi NNE 10.4 mph - N/A   Clear
12:35 PM 21.2 °F - -5.8 °F 30% 30.43 in 10.0 mi Calm Calm - N/A   Clear
12:55 PM 23.0 °F 15.8 °F -5.8 °F 28% 30.41 in 10.0 mi NW 5.8 mph - N/A   Clear
1:15 PM 23.0 °F 12.4 °F -5.8 °F 28% 30.40 in 10.0 mi NW 10.4 mph - N/A   Clear
1:35 PM 24.8 °F - -5.8 °F 26% 30.39 in 10.0 mi Calm Calm - N/A   Clear
1:55 PM 24.8 °F 17.9 °F -5.8 °F 26% 30.38 in 10.0 mi NW 5.8 mph - N/A   Clear
2:15 PM 26.6 °F - -4.0 °F 26% 30.37 in 10.0 mi Calm Calm - N/A   Clear
2:35 PM 26.6 °F 20.0 °F -4.0 °F 26% 30.37 in 10.0 mi NNW 5.8 mph - N/A   Clear
2:55 PM 26.6 °F 19.1 °F -5.8 °F 24% 30.36 in 10.0 mi NNW 6.9 mph - N/A   Clear
3:15 PM 26.6 °F 20.0 °F -5.8 °F 24% 30.35 in 10.0 mi NW 5.8 mph - N/A   Clear
3:35 PM 26.6 °F - -4.0 °F 26% 30.35 in 10.0 mi Calm Calm - N/A   Clear
3:55 PM 26.6 °F 18.2 °F -5.8 °F 24% 30.35 in 10.0 mi NW 8.1 mph - N/A   Clear
4:15 PM 26.6 °F 20.0 °F -4.0 °F 26% 30.35 in 10.0 mi WNW 5.8 mph - N/A   Clear
4:35 PM 26.6 °F 18.2 °F -5.8 °F 24% 30.35 in 10.0 mi NNW 8.1 mph - N/A   Clear
4:55 PM 26.6 °F 21.2 °F -5.8 °F 24% 30.34 in 10.0 mi NW 4.6 mph - N/A   Clear
5:15 PM 26.6 °F 20.0 °F -5.8 °F 24% 30.34 in 10.0 mi NW 5.8 mph - N/A   Clear
5:35 PM 24.8 °F 20.5 °F -5.8 °F 26% 30.34 in 10.0 mi NNW 3.5 mph - N/A   Clear
5:55 PM 24.8 °F 19.1 °F -5.8 °F 26% 30.35 in 10.0 mi NNW 4.6 mph - N/A   Clear
6:15 PM 24.8 °F 20.5 °F -5.8 °F 26% 30.35 in 10.0 mi NNW 3.5 mph - N/A   Partly Cloudy
6:35 PM 23.0 °F 18.4 °F -5.8 °F 28% 30.35 in 10.0 mi NW 3.5 mph - N/A   Clear
6:55 PM 23.0 °F 14.7 °F -5.8 °F 28% 30.36 in 10.0 mi NNW 6.9 mph - N/A   Mostly Cloudy
7:15 PM 23.0 °F 15.8 °F -5.8 °F 28% 30.36 in 10.0 mi North 5.8 mph - N/A   Mostly Cloudy
7:35 PM 21.2 °F 14.9 °F -4.0 °F 33% 30.36 in 10.0 mi North 4.6 mph - N/A   Clear
7:55 PM 21.2 °F 16.4 °F -4.0 °F 33% 30.37 in 10.0 mi NW 3.5 mph - N/A   Clear
8:15 PM 21.2 °F 14.9 °F -4.0 °F 33% 30.37 in 10.0 mi NW 4.6 mph - N/A   Clear
8:35 PM 19.4 °F 12.8 °F -2.2 °F 39% 30.38 in 10.0 mi NNW 4.6 mph - N/A   Clear
8:55 PM 19.4 °F 12.8 °F -2.2 °F 39% 30.38 in 10.0 mi NW 4.6 mph - N/A   Clear
9:15 PM 19.4 °F 14.3 °F -2.2 °F 39% 30.38 in 10.0 mi NW 3.5 mph - N/A   Clear
9:35 PM 17.6 °F - -2.2 °F 42% 30.37 in 10.0 mi Calm Calm - N/A   Clear
9:55 PM 15.8 °F - -2.2 °F 45% 30.38 in 10.0 mi Calm Calm - N/A   Clear
10:15 PM 15.8 °F - -2.2 °F 45% 30.38 in 10.0 mi Calm Calm - N/A   Clear
10:35 PM 15.8 °F - -2.2 °F 45% 30.39 in 10.0 mi Calm Calm - N/A   Clear
10:55 PM 15.8 °F - -2.2 °F 45% 30.39 in 10.0 mi Calm Calm - N/A   Clear
11:15 PM 15.8 °F - -2.2 °F 45% 30.39 in 10.0 mi Calm Calm - N/A   Clear
11:35 PM 12.2 °F - -2.2 °F 53% 30.38 in 10.0 mi Calm Calm - N/A   Clear
11:55 PM 12.2 °F - -2.2 °F 53% 30.38 in 10.0 mi Calm Calm - N/A   Clear